Regional Weather Roundup
Issued by NWS San Angelo, TX

Home | Current Version | Previous Version | Text Only | Print | Product List | Glossary On
Versions: 1 2 3 4 5 6 7 8 9 10 11 12 13 14 15 16 17 18 19 20 21 22 23 24 25 26 27 28 29 30 31 32 33 34 35 36 37 38 39 40 41 42 43 44 45 46 47 48 49 50
000
ASUS44 KSJT 171210
RWRSJT
WEST CENTRAL TEXAS REGIONAL WEATHER ROUNDUP
NATIONAL WEATHER SERVICE SAN ANGELO TX
700 AM CDT TUE OCT 17 2017

NOTE: "FAIR" INDICATES FEW OR NO CLOUDS BELOW 12,000 FEET WITH NO
SIGNIFICANT WEATHER AND/OR OBSTRUCTIONS TO VISIBILITY.

TXZ049-054-064>066-071>073-076>078-098-099-113-114-127-128-139-140-
154-155-168>170-171300
...LOCATIONS ACROSS WEST CENTRAL TEXAS...

CITY           SKY/WX    TMP DP  RH WIND       PRES   REMARKS
SAN ANGELO     CLOUDY    37  33  85 SW3       30.28R
ABILENE        CLEAR     43  36  76 S8        30.28S WCI  38
DYESS AFB      CLEAR     42  36  80 SE3       30.27S
JUNCTION       CLEAR     35  34  96 W3        30.30R
SWEETWATER     CLOUDY    47  34  60 S9        30.29S
BROWNWOOD      CLEAR     36  32  87 E3        30.30R
COLEMAN        CLOUDY    39  35  84 NW3       30.29R
SONORA         CLOUDY    32  30  93 CALM      30.33R
OZONA          FAIR      32  30  93 NE3       30.31R
BRADY          NOT AVBL
$$

TEXAS PANHANDLE/OKLAHOMA PANHANDLE

CITY           SKY/WX    TMP DP  RH WIND       PRES   REMARKS
AMARILLO       CLOUDY    46  36  68 SW14      30.21R WCI  40
BORGER         CLOUDY    49  37  63 SW9       30.18S
CANADIAN       CLEAR     44  37  76 CALM      30.19R
DALHART        CLEAR     36  33  89 W5        30.18S WCI  32
DUMAS          CLOUDY    42  34  74 SW10      30.17R WCI  36
GUYMON         NOT AVBL
HEREFORD       CLOUDY    43  38  81 MISG      30.22S
PAMPA          SUNNY     49  37  61 SW12      30.19S
PERRYTON       CLEAR     41  36  83 S8        30.15S WCI  36
$$

SOUTHERN PANHANDLE/SOUTH PLAINS/ROLLING PLAINS

CITY           SKY/WX    TMP DP  RH WIND       PRES   REMARKS
LUBBOCK        CLEAR     43  36  76 SW8       30.26S WCI  38
SNYDER         CLOUDY    43  34  70 SW5       30.28S
CHILDRESS      CLOUDY    42  35  76 S7        30.24S WCI  38
SEMINOLE       CLOUDY    42  35  75 CALM      30.28S
$$

PERMIAN BASIN

CITY           SKY/WX    TMP DP  RH WIND       PRES   REMARKS
MIDLAND        CLOUDY    51  34  52 S7        30.27S
ODESSA         NOT AVBL
WINK           CLEAR     41  37  86 N6        30.24F WCI  37
$$

FAR WEST/SOUTHWEST MOUNTAINS/TRANS PECOS

CITY           SKY/WX    TMP DP  RH WIND       PRES   REMARKS
ALPINE         SUNNY     48  33  56 SW9       30.36S
DRYDEN           N/A     47  38  71 N3        30.25S
EL PASO        CLEAR     55  38  52 NE6       30.27S
FORT STOCKTON  CLEAR     50  38  63 S8        30.25F
GUADALUPE PASS CLOUDY    53  34  48 SW9       30.34S
MARFA          CLEAR     42  36  79 NW8       30.35R WCI  37
PECOS          SUNNY     43  41  92 W3        30.26S
$$

DALLAS/FORT WORTH METROPLEX

CITY           SKY/WX    TMP DP  RH WIND       PRES   REMARKS
DFW AIRPORT    CLEAR     53  43  68 CALM      30.28R
FTW MEACHAM    CLEAR     52  47  83 CALM      30.28R
DAL-EXECUTIVE  CLEAR     47  42  83 CALM      30.29R
GRAND PRAIRIE  CLEAR     50  41  71 CALM      30.31R
ADDISON        CLEAR     55  41  58 E7        30.29R
MESQUITE       SUNNY     45  43  93 CALM      30.10F
LANCASTER      SUNNY     42  40  89 CALM      30.30S
$$

NORTH CENTRAL TEXAS

CITY           SKY/WX    TMP DP  RH WIND       PRES   REMARKS
SHRMAN/DENISON MOSUNNY   44  39  83 CALM      30.30R
GAINESVILLE    CLEAR     42  40  91 CALM      30.30S
BRIDGEPORT     SUNNY     40  40 100 CALM      30.30S
DENTON         CLEAR     41  40  96 CALM      30.29R
WAXAHACHIE     SUNNY     48  41  75 CALM      30.30R
GRANBURY       SUNNY     41  38  88 CALM      30.30S
$$

WESTERN NORTH TEXAS

CITY           SKY/WX    TMP DP  RH WIND       PRES   REMARKS
WICHITA FALLS  CLEAR     44  39  82 S6        30.26R
VERNON         SUNNY     46  37  71 CALM      30.26S
BRECKENRIDGE   SUNNY     43  36  76 CALM      30.28R
COMANCHE       CLEAR     45  38  75 CALM      30.29R
$$

CENTRAL AND SOUTH CENTRAL TEXAS

CITY           SKY/WX    TMP DP  RH WIND       PRES   REMARKS
AUSTIN/BERGSTM CLEAR     43  43 100 CALM      30.27S
WACO           CLEAR     41  38  89 W3        30.29R
HILLSBORO      SUNNY     49  41  75 CALM      30.29R
TEMPLE         CLEAR     41  39  93 N3        30.29S
KILLEEN-GRAY   CLEAR     50  38  65 W5        30.27S
FORT HOOD      CLEAR     48  39  72 CALM      30.25R
GEORGETOWN     CLEAR     47  40  76 CALM      30.29F
LAGO VISTA     FAIR      53  40  60 NE3       30.28S
SAN MARCOS     CLEAR     48  42  80 CALM      30.28R
NEW BRAUNFELS  CLEAR     50  42  74 N5        30.25S
RANDOLPH AFB   CLEAR     47  41  79 NW8       30.26R
SAN ANTONIO    CLEAR     49  40  71 NW5       30.27R
STINSON        CLEAR     54  43  66 N5        30.24S
PLEASANTON     NOT AVBL
LA GRANGE      CLEAR     46  44  94 CALM      30.24S
GIDDINGS       SUNNY     48  42  77 N5        30.27S
$$

EAST TEXAS

CITY           SKY/WX    TMP DP  RH WIND       PRES   REMARKS
PARIS          CLEAR     44  40  85 E7        30.32R
CLARKSVILLE    NOT AVBL
TYLER          CLEAR     46  40  79 CALM      30.28S
LONGVIEW       CLEAR     41  39  93 CALM      30.28S
PALESTINE      SUNNY     53  42  65 NE5       30.29R
NACOGDOCHES    CLEAR     42  39  89 CALM      30.29R
$$

TEXAS HILL COUNTRY AND EDWARDS PLATEAU

CITY           SKY/WX    TMP DP  RH WIND       PRES   REMARKS
LLANO          SUNNY     39  36  87 CALM      30.32S
HORSESHOE BAY  FAIR      41  39  93 CALM      30.28S
KERRVILLE      CLEAR     38  37  92 N3        30.29R
FREDERICKSBRG  CLEAR     38  34  87 CALM      30.29S
ROCKSPRINGS    NOT AVBL
HONDO          CLEAR     46  38  73 N8        30.27R
UVALDE         SUNNY     47  38  72 NE5       30.28R
DEL RIO        CLEAR     46  43  89 CALM      30.25S
$$

SOUTHEAST TEXAS

CITY           SKY/WX    TMP DP  RH WIND       PRES   REMARKS
COLLEGE STN    CLEAR     52  42  69 NE6       30.27R
CALDWELL       SUNNY     47  42  82 N6        30.28R
CROCKETT         N/A     41  39  93 CALM      30.30S
BRENHAM        CLEAR     48  45  90 CALM      30.28R
HUNTSVILLE     CLEAR     45  40  82 CALM      30.26S
CONROE         CLEAR     43  42  97 CALM      30.26R
HOUSTON BUSH   CLEAR     53  46  77 NE3       30.25R
HOUSTON HOBBY  CLEAR     57  44  62 NE9       30.24R
PERLAND        CLEAR     56  44  64 NE5       30.25R
WHARTON        SUNNY     49  45  85 N5        30.25R
$$

THE UPPER TEXAS COAST

CITY           SKY/WX    TMP DP  RH WIND       PRES   REMARKS
ORANGE         SUNNY     50  46  86 N3        30.26R
PORT ARTHUR    CLEAR     50  45  83 N6        30.23R
GALVESTON      CLEAR     62  50  64 NE15      30.23R
ANGLETON       CLEAR     51  46  83 N5        30.23R
BAY CITY       SUNNY     53  47  82 NE7       30.22S
$$

TEXAS COASTAL BEND, RIO GRANDE PLAINS DEEP SOUTH TEXAS

CITY           SKY/WX    TMP DP  RH WIND       PRES   REMARKS
VICTORIA       CLEAR     50  46  86 N8        30.25R
BEEVILLE       FAIR      50  41  71 N6        30.25R
ROCKPORT       CLEAR     57  51  80 N9        30.22R
PORT ARANSAS   NOT AVBL
PORT LAVACA    SUNNY     51  46  86 N7        30.24R
CORPUS CHRISTI PTCLDY    54  50  86 N9        30.22R
KINGSVILLE NAS CLEAR     51  47  86 N9        30.23R
COTULLA        CLEAR     46  42  86 CALM      30.26R
LAREDO         CLEAR     53  48  83 NW5       30.26R
BROWNSVILLE    CLEAR     58  51  78 NW7       30.19R
PORT ISABEL    CLEAR     58  50  75 NW7       30.18R
HEBBRONVILLE   SUNNY     50  41  72 N7        30.25R
MCALLEN        CLEAR     57  47  69 NW6       30.22R
WESLACO        CLEAR     54  47  78 N5        30.22R
FALFURRIAS     SUNNY     53  45  75 CALM      30.23R
EDINBURG       SUNNY     53  47  78 NW7       30.23R
$$




USA.gov is the U.S. government's official web portal to all federal, state and local government web resources and services.